Wind_Speed
9 9 8 8 8 8 8 8 7 7 7 7 6 6 5 5 5 5 5 6 6 7 7 6 6 6 6 7 6 6 6 5 5 6 6 6 6 5 5 5 4 4 5
10 9 9 9 8 8 8 8 8 8 8 7 7 7 6 6 6 6 5 6 7 7 7 8 8 7 7 8 8 8 7 7 6 6 6 6 6 6 5 5 5 4 5
10 10 9 9 8 8 8 9 9 9 8 8 8 8 7 7 7 7 7 7 7 8 8 8 8 8 8 9 9 9 8 8 8 7 7 7 6 6 5 5 5 5 5
10 10 10 10 10 10 10 10 10 10 9 9 9 8 8 8 8 8 8 8 8 9 9 9 9 9 9 9 9 9 9 9 9 9 8 8 7 7 6 6 6 6 6
9 10 10 10 10 10 11 11 11 11 11 10 10 10 10 10 9 9 9 9 9 10 11 11 10 10 9 10 10 10 10 10 10 10 9 9 9 8 7 7 7 7 7
9 9 10 10 10 10 10 11 11 11 11 11 10 11 10 10 11 10 10 10 10 10 11 12 12 11 11 11 11 11 11 11 11 11 10 10 9 9 9 8 8 8 8
9 10 10 11 11 10 11 11 11 11 11 11 11 11 11 10 11 11 11 11 11 12 12 12 12 12 12 12 12 12 13 13 13 12 12 11 11 11 10 10 9 10 10
9 10 10 11 11 11 12 12 11 11 11 11 12 12 12 11 11 12 12 12 12 13 13 13 13 13 13 13 13 13 13 14 14 14 14 13 13 12 12 12 11 11 11
10 11 12 12 12 13 13 12 11 11 11 11 11 12 12 13 13 12 13 13 14 14 13 14 13 14 14 14 14 14 15 15 15 14 15 15 15 15 14 13 13 13 12
11 12 13 13 13 13 14 13 12 11 11 11 11 12 12 12 12 13 14 14 14 14 14 14 15 15 15 15 16 16 16 17 17 17 17 16 16 16 15 14 14 14 13
12 12 13 14 14 14 14 13 13 13 13 12 12 12 12 13 13 13 14 14 14 15 15 15 15 16 17 17 17 17 18 18 18 18 17 17 17 17 17 17 16 16 15
12 13 13 13 14 15 14 14 14 13 14 13 13 13 12 13 14 14 14 15 15 16 16 16 17 16 17 18 19 19 19 20 19 19 18 18 18 18 18 17 18 18 17
13 14 14 14 15 15 14 14 14 13 13 14 13 13 13 14 14 15 15 16 16 17 17 17 18 18 18 18 19 20 20 21 21 21 20 20 20 20 20 19 19 19 19
13 14 14 15 16 15 14 14 15 14 13 13 13 13 14 15 15 16 16 16 17 17 18 18 19 19 19 19 20 20 21 22 22 22 22 21 22 22 21 21 21 21 20
14 13 14 15 15 16 16 16 15 13 13 13 13 14 14 15 16 16 16 17 18 18 19 19 19 19 20 20 21 21 22 22 22 22 22 22 23 24 23 23 23 23 23
14 14 14 15 15 16 17 16 13 13 13 13 14 15 15 16 16 16 17 18 18 18 19 19 20 21 21 21 21 21 22 23 23 23 23 22 23 24 25 25 25 24 25
15 15 15 16 16 17 16 15 14 14 14 15 15 15 16 17 17 17 17 18 18 19 19 19 20 21 21 21 22 22 22 23 23 23 24 23 23 24 25 25 26 26 26
15 15 15 16 16 17 16 16 15 16 15 15 15 16 16 17 17 17 17 17 17 18 19 20 20 21 20 21 21 22 22 22 23 23 23 24 25 25 25 25 26 27 28
14 15 15 16 17 18 17 16 15 15 15 15 15 16 17 17 17 18 18 18 18 18 19 20 20 20 21 22 22 22 23 24 24 24 24 24 25 26 27 27 27 28 29
15 15 16 17 17 17 17 16 15 15 15 15 16 17 18 19 18 18 18 18 18 19 19 19 20 20 21 22 22 23 23 24 24 25 25 25 24 26 27 28 28 29 29
15 15 15 16 16 17 16 15 15 15 15 16 17 17 18 18 18 17 17 18 18 19 19 19 20 21 21 22 21 21 22 23 23 24 24 24 24 25 26 28 29 29 29
15 15 14 15 16 16 16 16 16 16 16 17 18 19 19 19 18 19 19 18 19 19 19 19 20 20 20 20 20 20 21 22 23 23 24 24 24 25 25 26 27 29 30
14 15 15 15 16 16 16 17 17 16 17 18 19 19 19 19 19 18 19 19 18 19 19 19 18 18 18 19 20 21 20 21 21 22 23 23 25 26 27 27 27 27 28
15 15 15 16 17 17 17 17 17 18 18 19 20 20 20 20 19 19 19 19 19 19 18 18 17 17 17 18 19 20 20 21 21 21 22 23 24 25 26 27 27 27 27
15 15 16 16 17 17 17 18 18 19 19 19 19 19 19 19 19 18 19 19 19 19 18 17 16 17 17 17 18 19 20 20 21 22 22 22 23 23 24 26 26 27 27
16 16 16 17 18 18 18 19 19 19 19 20 19 18 19 19 19 19 18 18 18 18 17 16 16 17 17 18 18 19 20 20 21 21 21 22 23 23 24 25 25 27 28
Wind_Direction
316 318 317 313 308 305 300 298 295 296 293 286 279 271 263 260 260 250 236 226 224 221 215 213 214 215 216 214 211 211 211 212 216 214 213 213 211 208 204 206 212 214 211
310 314 314 313 308 304 299 296 295 293 289 285 279 270 263 259 259 256 244 230 225 225 221 219 220 223 221 215 214 217 222 223 224 224 221 221 218 208 206 209 212 213 204
309 311 311 312 306 301 296 296 294 292 287 285 280 272 266 262 259 255 253 243 235 232 230 227 227 230 226 220 219 221 225 227 228 232 229 228 226 224 221 212 210 213 210
310 310 309 310 304 298 293 291 291 290 287 285 280 276 269 263 259 256 255 251 244 238 237 234 234 236 233 229 228 227 227 230 232 236 235 233 232 230 226 219 217 220 221
309 309 310 310 305 301 297 293 289 289 284 282 281 278 273 267 263 261 261 257 251 247 245 243 240 240 238 235 233 234 230 231 237 239 235 235 235 232 230 229 224 221 228
309 309 310 311 307 305 302 298 290 289 283 280 280 279 275 269 266 265 265 261 256 254 253 251 247 247 243 239 236 237 235 234 238 241 240 238 236 232 232 233 234 229 235
309 310 311 309 313 310 306 300 293 290 285 283 280 277 273 270 268 267 266 262 260 258 257 256 251 248 247 247 246 242 239 240 238 238 237 237 237 235 236 241 241 237 239
310 311 311 315 316 313 310 303 297 292 289 288 283 276 272 271 270 268 267 265 263 262 259 254 252 250 251 250 249 246 243 243 241 241 242 243 241 239 242 244 244 240 238
311 312 311 313 315 313 310 305 301 299 295 290 281 274 270 271 271 269 268 268 266 267 265 258 255 254 253 254 253 248 246 245 246 244 245 245 243 241 241 243 243 241 242
311 311 314 315 317 315 313 306 303 299 297 295 288 281 276 274 275 272 270 271 271 266 262 260 258 254 254 254 254 253 250 249 249 244 245 246 245 244 243 244 245 245 246
313 312 316 318 318 316 315 313 305 297 295 294 290 285 280 277 277 275 272 271 272 269 265 263 263 257 255 253 253 254 255 254 252 247 248 249 247 245 245 245 246 249 249
313 313 315 318 320 320 318 316 310 301 295 292 291 286 283 279 277 278 274 272 272 271 269 265 264 261 257 254 254 255 257 256 256 253 251 249 247 245 246 249 251 250 251
313 313 315 317 317 317 317 316 313 306 300 297 294 287 284 282 280 280 278 276 272 269 269 266 262 259 259 258 256 257 258 257 255 255 252 250 250 249 250 251 250 249 250
312 314 313 312 313 315 316 317 317 313 305 301 297 291 287 284 282 283 281 278 276 272 270 271 267 263 260 261 261 260 259 258 257 256 253 252 251 250 250 250 250 249 250
309 314 315 312 313 314 317 316 317 314 309 304 298 295 292 288 286 285 281 278 277 275 273 270 268 265 263 263 263 262 261 259 257 256 257 255 252 251 251 250 250 249 249
308 310 312 313 315 315 316 315 315 315 310 305 301 299 296 294 290 285 282 279 277 278 276 273 270 267 264 263 264 264 260 259 257 257 258 257 256 255 253 253 251 252 249
305 309 309 310 317 316 314 313 311 313 312 310 305 302 299 296 293 290 285 282 278 278 278 277 273 270 269 267 266 265 262 260 259 259 259 257 256 255 255 255 254 254 251
304 307 309 310 314 315 313 311 312 312 313 312 310 307 305 301 295 293 290 286 282 281 279 279 275 272 272 270 267 266 263 261 258 258 259 260 258 256 255 256 254 254 253
306 307 307 309 313 314 312 308 310 312 312 313 312 310 308 304 298 294 291 287 284 283 283 281 277 275 274 272 269 267 264 262 261 259 260 259 259 257 256 257 256 256 255
306 305 305 307 311 314 312 308 309 311 313 314 314 311 308 307 303 299 294 290 288 286 285 282 280 278 276 274 271 269 267 266 264 263 264 263 262 259 258 257 257 256 256
306 305 306 308 311 314 313 308 308 310 312 313 313 312 311 310 306 303 299 294 291 288 286 284 282 280 278 276 273 271 269 268 266 265 265 266 265 262 260 259 257 256 255
305 305 306 309 312 315 314 308 308 309 311 313 312 310 310 309 306 303 302 298 293 291 289 287 285 283 282 278 275 272 272 271 269 269 267 266 266 265 264 263 261 256 254
308 309 308 308 313 313 312 308 308 308 310 312 312 310 310 310 308 305 304 303 300 293 290 288 287 284 281 280 278 275 274 274 274 271 269 268 268 268 266 264 264 260 257
307 309 309 309 312 311 309 308 308 308 309 311 312 310 309 310 310 306 305 304 302 299 293 288 287 287 284 282 279 278 277 277 275 271 270 271 270 269 267 264 263 261 259
307 309 310 310 310 309 311 310 310 310 312 313 312 310 310 309 310 310 309 307 304 299 294 292 289 288 287 285 281 280 279 278 277 276 272 272 271 270 266 264 264 262 259
306 309 310 311 309 307 309 309 309 311 312 312 312 311 309 309 311 311 311 310 306 299 294 293 292 289 288 285 283 282 281 280 279 279 277 274 273 272 270 267 266 263 260
Height
5875 5874 5874 5873 5872 5872 5871 5870 5870 5869 5869 5869 5868 5868 5868 5867 5867 5868 5868 5868 5869 5869 5869 5870 5871 5871 5872 5872 5873 5873 5874 5875 5876 5876 5877 5878 5878 5879 5880 5881 5883 5884 5885
5875 5874 5873 5872 5871 5871 5870 5869 5869 5868 5867 5867 5867 5867 5867 5866 5866 5866 5867 5867 5867 5868 5868 5869 5870 5870 5871 5871 5872 5873 5874 5874 5875 5875 5876 5877 5878 5879 5880 5881 5882 5883 5884
5873 5873 5872 5871 5870 5869 5869 5868 5867 5867 5866 5866 5866 5865 5865 5865 5865 5865 5866 5866 5866 5867 5867 5868 5868 5869 5870 5870 5871 5872 5873 5873 5874 5875 5875 5876 5877 5878 5879 5880 5881 5882 5883
5872 5871 5870 5869 5869 5868 5867 5866 5866 5865 5865 5864 5864 5864 5864 5864 5864 5864 5864 5865 5865 5865 5866 5866 5867 5868 5868 5869 5870 5871 5872 5872 5873 5874 5875 5876 5876 5877 5878 5879 5880 5881 5883
5871 5870 5869 5868 5867 5866 5865 5864 5864 5863 5863 5863 5863 5862 5862 5862 5863 5863 5863 5863 5863 5864 5865 5865 5865 5866 5867 5868 5869 5870 5870 5871 5872 5872 5874 5875 5875 5876 5877 5878 5879 5880 5882
5869 5868 5867 5866 5864 5864 5863 5862 5862 5861 5861 5861 5860 5860 5860 5860 5861 5861 5861 5861 5861 5862 5863 5863 5864 5864 5865 5866 5867 5868 5868 5869 5870 5871 5872 5873 5874 5875 5876 5877 5878 5879 5880
5867 5866 5865 5864 5863 5862 5861 5860 5859 5859 5858 5858 5858 5858 5858 5858 5858 5859 5859 5859 5860 5860 5860 5861 5862 5862 5863 5864 5865 5865 5866 5867 5868 5869 5870 5870 5872 5874 5875 5875 5877 5878 5879
5865 5864 5863 5862 5861 5860 5859 5858 5857 5856 5856 5855 5855 5855 5855 5856 5856 5856 5857 5857 5858 5858 5858 5859 5859 5860 5860 5861 5862 5863 5864 5864 5866 5867 5868 5869 5870 5872 5873 5874 5875 5876 5877
5863 5862 5861 5860 5859 5858 5857 5856 5855 5854 5853 5853 5852 5853 5853 5853 5853 5854 5854 5854 5855 5855 5856 5856 5857 5857 5858 5858 5859 5860 5861 5862 5863 5865 5866 5867 5868 5869 5870 5872 5873 5874 5875
5861 5860 5859 5858 5857 5856 5855 5854 5853 5852 5851 5850 5850 5850 5850 5851 5851 5851 5851 5852 5852 5852 5853 5853 5854 5855 5855 5856 5857 5858 5858 5859 5860 5862 5863 5865 5865 5866 5867 5869 5870 5871 5873
5859 5859 5858 5857 5856 5855 5854 5852 5851 5850 5849 5848 5848 5848 5848 5848 5849 5849 5848 5849 5849 5849 5850 5850 5851 5851 5852 5853 5854 5854 5855 5856 5857 5859 5860 5861 5862 5863 5864 5866 5868 5869 5870
5858 5857 5856 5855 5854 5853 5851 5850 5848 5847 5846 5846 5846 5845 5845 5846 5846 5846 5845 5846 5846 5846 5846 5847 5847 5848 5849 5849 5850 5851 5852 5853 5854 5855 5857 5858 5859 5860 5862 5863 5864 5866 5867
5857 5856 5855 5854 5852 5850 5848 5847 5846 5844 5844 5843 5843 5843 5843 5842 5842 5842 5842 5842 5842 5842 5842 5843 5843 5844 5845 5845 5846 5847 5848 5849 5850 5852 5853 5854 5855 5857 5858 5859 5860 5862 5863
5855 5854 5853 5851 5850 5848 5846 5845 5844 5842 5842 5841 5841 5840 5840 5839 5839 5839 5839 5839 5839 5838 5839 5839 5839 5840 5841 5841 5842 5842 5843 5845 5846 5848 5849 5850 5851 5853 5854 5855 5856 5858 5859
5853 5852 5851 5849 5848 5846 5845 5843 5842 5841 5840 5839 5838 5838 5837 5836 5836 5835 5835 5835 5835 5835 5834 5834 5835 5835 5836 5837 5837 5838 5839 5840 5841 5842 5844 5845 5847 5848 5849 5850 5852 5853 5855
5852 5850 5849 5847 5845 5844 5843 5841 5840 5839 5838 5837 5836 5835 5834 5833 5833 5832 5831 5831 5831 5831 5830 5830 5830 5831 5832 5832 5833 5833 5834 5835 5836 5837 5838 5840 5841 5843 5844 5845 5846 5848 5849
5849 5848 5847 5845 5844 5842 5841 5839 5838 5837 5835 5834 5833 5832 5831 5830 5829 5828 5828 5827 5826 5826 5826 5826 5826 5826 5827 5828 5828 5829 5829 5830 5831 5831 5832 5834 5836 5837 5839 5840 5841 5842 5844
5847 5846 5845 5844 5842 5840 5838 5837 5835 5834 5833 5832 5831 5829 5828 5827 5826 5825 5824 5823 5822 5822 5821 5821 5821 5822 5822 5822 5823 5823 5824 5825 5825 5826 5826 5828 5829 5831 5833 5834 5835 5837 5838
5845 5843 5842 5841 5839 5838 5836 5835 5833 5832 5830 5829 5828 5826 5825 5823 5822 5821 5820 5819 5818 5818 5817 5817 5817 5817 5817 5817 5817 5818 5818 5819 5820 5820 5820 5821 5822 5824 5826 5827 5829 5830 5831
5842 5841 5840 5839 5837 5835 5833 5832 5831 5829 5828 5826 5825 5823 5821 5820 5818 5817 5816 5815 5814 5813 5813 5812 5812 5811 5811 5811 5811 5812 5812 5813 5813 5814 5814 5815 5815 5817 5819 5820 5821 5823 5825
5839 5839 5837 5836 5834 5833 5831 5829 5828 5826 5824 5823 5821 5820 5818 5816 5815 5813 5812 5811 5810 5809 5808 5808 5807 5806 5806 5805 5806 5806 5807 5807 5807 5808 5808 5808 5809 5810 5811 5812 5813 5815 5817
5837 5836 5835 5833 5832 5830 5828 5826 5825 5823 5821 5820 5818 5816 5814 5813 5811 5809 5808 5806 5805 5804 5804 5803 5802 5801 5801 5800 5800 5801 5801 5802 5801 5801 5802 5802 5803 5803 5803 5804 5805 5807 5809
5834 5833 5832 5831 5829 5827 5825 5823 5822 5820 5818 5816 5815 5813 5811 5809 5807 5805 5804 5802 5801 5799 5798 5797 5797 5796 5796 5796 5795 5795 5796 5796 5796 5796 5795 5796 5796 5796 5796 5796 5797 5799 5801
5832 5830 5829 5828 5826 5824 5823 5821 5819 5817 5815 5813 5811 5809 5807 5805 5803 5801 5800 5798 5796 5795 5793 5792 5792 5792 5791 5791 5791 5790 5790 5789 5789 5790 5790 5789 5789 5789 5789 5789 5790 5791 5793
5829 5828 5827 5825 5823 5821 5819 5817 5815 5813 5811 5809 5807 5805 5803 5801 5799 5797 5795 5793 5792 5790 5789 5788 5787 5787 5786 5786 5785 5785 5784 5784 5783 5783 5783 5783 5782 5781 5782 5783 5784 5784 5786
5826 5824 5823 5822 5820 5818 5816 5813 5811 5809 5807 5805 5802 5800 5799 5797 5795 5793 5792 5789 5787 5786 5785 5784 5783 5783 5782 5781 5780 5780 5779 5778 5778 5777 5777 5777 5776 5775 5775 5776 5777 5778 5779